Regional Weather Roundup
Issued by NWS Green Bay, WI

Home | Current Version | Previous Version | Graphics & Text | Print | Product List | Glossary Off
Versions: 1 2 3 4 5 6 7 8 9 10 11 12 13 14 15 16 17 18 19 20 21 22 23 24 25 26 27 28 29 30 31 32 33 34 35 36 37 38 39 40 41 42 43 44 45 46 47 48 49 50

000
ASUS43 KGRB 290959
RWRGRB

NORTH-CENTRAL AND NORTHEAST WISCONSIN REGIONAL WEATHER ROUNDUP
NATIONAL WEATHER SERVICE GREEN BAY WI
500 AM CDT SUN MAR 29 2015

WIZ005-009-010>012-018-019-291100-
NORTH CENTRAL WISCONSIN

CITY           SKY/WX    TMP DP  RH WIND       PRES   REMARKS
IRONWOOD       MOCLDY    34  16  47 S20G28    29.73F
MANITOWISH WTR NOT AVBL
ARBOR VITAE    NOT AVBL
EAGLE RIVER    NOT AVBL
LAND O LAKES   NOT AVBL
RHINELANDER    MOCLDY    30  13  49 SW9G20    29.86F
PHILLIPS       NOT AVBL
ANTIGO         NOT AVBL
TOMAHAWK       NOT AVBL
MERRILL        NOT AVBL
$$

WIZ013-073-291100-
NORTHEAST WISCONSIN

CITY           SKY/WX    TMP DP  RH WIND       PRES   REMARKS
IRON MOUNTAIN  MOCLDY    29  14  53 S9        29.89F
MARINETTE      MOCLDY    30  19  64 SW10      29.98F
$$

WIZ017-030-035>037-045-291100-
CENTRAL WISCONSIN

CITY           SKY/WX    TMP DP  RH WIND       PRES   REMARKS
MEDFORD        NOT AVBL
WAUSAU         MOCLDY    31  15  52 S12       29.91F
MOSINEE        NOT AVBL
MARSHFIELD     MOCLDY    31  14  49 S14       29.92F
WISC RAPIDS    MOCLDY    31  12  45 S8        29.97F
STEVENS POINT  NOT AVBL
WAUPACA        NOT AVBL
SHAWANO        NOT AVBL
CLINTONVILLE   NOT AVBL
$$

WIZ038-039-048-051-291100-
FOX VALLEY

CITY           SKY/WX    TMP DP  RH WIND       PRES   REMARKS
NWS GREEN BAY  MOCLDY    31  19  61 S10       30.01F
APPLETON       NOT AVBL
OSHKOSH        MOCLDY    30  17  58 S17G23    30.01F
FOND DU LAC    MOCLDY    31  16  54 S14       30.03F
$$

WIZ022-050-052-291100-
EAST CENTRAL WISCONSIN

CITY           SKY/WX    TMP DP  RH WIND       PRES   REMARKS
STURGEON BAY   MOCLDY    30  14  51 S15G21    30.03F
MANITOWOC      NOT AVBL
SHEBOYGAN      CLOUDY    28  15  58 S12       30.07F
$$

LMZ563-521-522-541>543-291100-
LAKESHORE

STATION/POSITION TIME  TEMP    WIND        PRES    VSBY  WAVE
                       AIR SEA DIR/SP/G                  HT/PER
                 (UTC) (F)     (DEG/KT/KT) (MB)    (MI)  (FT/S)
SHEBOYGAN LKSHOR 0900   32     200/ 17/ 20 1020.1F
NORTHPORT PIER   0900   31     180/  7/ 13 1016.6F
SISTER BAY LKSHO 0900   30     200/ 16/ 19   N/A
CHAMBERS ISLAND  0900   29     170/  8/ 15 1016.3F
$$



USA.gov is the U.S. government's official web portal to all federal, state and local government web resources and services.